Clarksburg, WV

9:44 PM EDT on July 18, 2019 (GMT -0400)
Benedum

Weather History for KCKB - May, 2019

Change the Weather History Date:

Thursday, May 30, 2019

  Actual Average Record
Temperature  
Mean Temperature 71 °F -  
Max Temperature 77 °F 75 °F 92 °F (1931)
Min Temperature 65 °F 51 °F 34 °F (1930)
Cooling Degree Days 6    
Month to date cooling degree days 150  
Year to date cooling degree days 175  
Growing Degree Days 22 (Base 50)    
Moisture  
Dew Point 63 °F    
Average Humidity 76    
Maximum Humidity 87    
Minimum Humidity 64    
Precipitation  
Precipitation 0.02 in - - ()
Month to date precipitation 3.64  
Year to date precipitation 17.77  
Sea Level Pressure  
Sea Level Pressure 29.81 in    
Wind  
Wind Speed 8 mph (SW)    
Max Wind Speed 18 mph    
Max Gust Speed 24 mph    
Visibility 10 miles    
Events Rain    
Averages and records for this station are not official NWS values.
T = Trace of Precipitation, MM = Missing Value Source: NWS Daily Summary

Daily Weather History Graph

Daily Weather History Graph

Search for Another Location

Airport or City:

Astronomy

May. 30, 2019 Rise Set
Actual Time 5:57 AM EDT 8:40 PM EDT
Civil Twilight 5:25 AM EDT 9:11 PM EDT
Nautical Twilight 4:46 AM EDT 9:51 PM EDT
Astronomical Twilight 4:01 AM EDT 10:35 PM EDT
Moon 4:00 AM EDT (5/30) 4:47 PM EDT (5/30)
Length of Visible Light 15h 45m
Length of Day
14h 42m
Waning Crescent, 15% of the Moon is Illuminated
May 30
Waning Crescent
Jun 3
New
Jun 10
First Quarter
Jun 17
Full
Jun 25
Last Quarter

Hourly Weather History & Observations

Time (EDT) Temp. Dew Point Humidity Pressure Visibility Wind Dir Wind Speed Gust Speed Precip Events Conditions
12:53 AM 68.0 °F 62.1 °F 81% 29.82 in 10.0 mi SSW 6.9 mph - N/A   Mostly Cloudy
1:53 AM 66.9 °F 62.1 °F 84% 29.82 in 10.0 mi SW 9.2 mph - N/A   Overcast
2:53 AM 66.0 °F 62.1 °F 87% 29.80 in 10.0 mi SSW 8.1 mph - N/A   Mostly Cloudy
3:53 AM 66.0 °F 61.0 °F 84% 29.80 in 10.0 mi SW 5.8 mph - N/A   Partly Cloudy
4:53 AM 66.9 °F 62.1 °F 84% 29.80 in 10.0 mi SSW 3.5 mph - N/A   Overcast
5:53 AM 66.9 °F 62.1 °F 84% 29.80 in 10.0 mi Calm Calm - N/A   Mostly Cloudy
6:53 AM 68.0 °F 62.1 °F 81% 29.81 in 10.0 mi South 4.6 mph - N/A   Overcast
7:53 AM 70.0 °F 62.1 °F 76% 29.81 in 10.0 mi Calm Calm - N/A   Mostly Cloudy
8:53 AM 73.0 °F 63.0 °F 71% 29.80 in 10.0 mi WSW 4.6 mph - N/A   Overcast
9:39 AM 75.9 °F 64.0 °F 67% 29.83 in 10.0 mi WSW 8.1 mph - N/A   Scattered Clouds
9:53 AM 75.0 °F 63.0 °F 66% 29.79 in 10.0 mi SW 11.5 mph - N/A   Clear
10:53 AM 75.0 °F 64.0 °F 69% 29.80 in 10.0 mi SW 10.4 mph - N/A   Overcast
11:03 AM 75.0 °F 64.0 °F 69% 29.84 in 10.0 mi SW 12.7 mph - N/A   Overcast
11:53 AM 77.0 °F 64.9 °F 66% 29.81 in 10.0 mi West 10.4 mph - N/A   Mostly Cloudy
12:05 PM 75.9 °F 64.0 °F 67% 29.85 in 10.0 mi WSW 9.2 mph - N/A   Mostly Cloudy
12:27 PM 75.9 °F 64.0 °F 67% 29.85 in 10.0 mi WSW 12.7 mph - N/A   Mostly Cloudy
12:53 PM 75.0 °F 63.0 °F 66% 29.81 in 10.0 mi West 9.2 mph 23.0 mph N/A   Mostly Cloudy
1:53 PM 73.0 °F 64.0 °F 73% 29.81 in 10.0 mi West 9.2 mph - 0.00 in Rain Light Rain
2:53 PM 75.9 °F 63.0 °F 64% 29.77 in 10.0 mi WSW 8.1 mph 19.6 mph 0.00 in   Mostly Cloudy
3:09 PM 75.0 °F 64.0 °F 69% 29.82 in 10.0 mi SW 9.2 mph - N/A   Mostly Cloudy
3:34 PM 75.9 °F 64.0 °F 67% 29.82 in 10.0 mi WSW 10.4 mph - N/A   Mostly Cloudy
3:53 PM 73.0 °F 64.9 °F 76% 29.78 in 5.0 mi WSW 11.5 mph - 0.01 in Rain Light Rain
4:53 PM 73.0 °F 66.0 °F 79% 29.77 in 10.0 mi SW 9.2 mph - 0.01 in   Overcast
5:53 PM 71.1 °F 64.0 °F 78% 29.77 in 10.0 mi SW 11.5 mph - 0.00 in Rain Light Rain
6:36 PM 70.0 °F 64.0 °F 81% 29.82 in 10.0 mi SW 13.8 mph - 0.00 in Rain Light Rain
6:53 PM 70.0 °F 63.0 °F 78% 29.79 in 10.0 mi WSW 10.4 mph - 0.00 in Rain Light Rain
7:53 PM 68.0 °F 62.1 °F 81% 29.80 in 10.0 mi SSW 8.1 mph - 0.00 in Rain Light Rain
8:53 PM 66.9 °F 61.0 °F 81% 29.83 in 10.0 mi SW 13.8 mph - 0.00 in   Overcast
9:00 PM 66.9 °F 61.0 °F 81% 29.86 in 10.0 mi SW 10.4 mph - N/A   Overcast
9:53 PM 66.9 °F 61.0 °F 81% 29.82 in 10.0 mi SSW 8.1 mph - N/A   Overcast
10:53 PM 66.9 °F 61.0 °F 81% 29.83 in 10.0 mi SW 9.2 mph - N/A   Overcast
11:53 PM 66.9 °F 61.0 °F 81% 29.82 in 10.0 mi SSW 5.8 mph - N/A   Overcast